Date,TemperatureHighF,TemperatureAvgF,TemperatureLowF,DewpointHighF,DewpointAvgF,DewpointLowF,HumidityHigh,HumidityAvg,HumidityLow,PressureMaxIn,PressureMinIn,WindSpeedMaxMPH,WindSpeedAvgMPH,GustSpeedMaxMPH,PrecipitationSumIn
2013-1-1,42.4,39.2,30.6,27.8,23.4,10.8,64,53,39,30.20,30.02,0,0,0,0.00
2013-1-2,34.7,30.8,24.4,11.3,6.7,3.6,45,36,30,30.29,30.17,0,0,0,0.00
2013-1-3,34.7,34.5,28.0,13.3,8.1,7.9,53,33,32,30.24,30.10,0,0,0,0.00
2013-1-4,38.5,33.5,27.7,18.5,16.2,13.3,60,49,40,30.12,29.98,8,0,14,0.00
2013-1-5,43.2,34.6,27.3,19.7,17.0,12.9,58,49,36,30.31,30.04,11,3,17,0.00
2013-1-6,48.7,38.4,32.5,33.3,26.4,18.5,84,63,42,30.25,29.98,9,1,12,0.09
2013-1-7,48.7,38.0,28.4,27.6,22.3,17.3,68,54,32,30.41,30.06,0,0,0,0.00
2013-1-8,51.1,37.1,25.9,29.8,24.7,17.0,75,62,42,30.44,30.35,0,0,0,0.00
2013-1-9,53.6,43.9,30.9,39.1,32.8,24.6,84,66,48,30.40,30.15,0,0,0,0.00
2013-1-10,51.6,44.2,34.7,29.4,22.5,17.1,61,43,26,30.54,30.26,9,1,14,0.00
2013-1-11,47.8,43.4,34.2,45.3,36.1,22.1,92,76,61,30.53,30.06,8,2,12,0.47
2013-1-12,49.3,46.5,44.6,46.4,44.2,42.5,94,91,87,30.17,30.05,7,2,10,0.01
2013-1-13,51.4,45.9,41.5,49.2,43.8,39.8,95,92,85,30.16,30.00,10,3,14,0.00
2013-1-14,51.8,50.2,41.0,50.0,47.6,29.8,95,91,54,30.29,29.95,9,1,13,0.20
2013-1-15,40.8,38.9,36.5,35.9,30.6,26.9,89,73,61,30.35,30.20,8,2,11,0.33
2013-1-16,42.3,37.9,35.4,40.4,34.7,30.1,93,88,78,30.21,29.80,14,3,18,0.70
2013-1-17,44.1,39.6,35.8,35.6,30.4,25.5,90,71,49,30.11,29.94,10,2,13,0.02
2013-1-18,36.5,31.1,25.9,29.8,8.1,-6.8,77,41,20,30.52,30.00,21,2,25,0.01
2013-1-19,53.8,41.2,27.0,29.4,18.1,5.9,61,41,21,30.45,29.96,12,0,17,0.00
2013-1-20,57.7,45.8,32.9,26.4,18.6,0.9,55,36,18,30.06,29.73,0,0,0,0.02
2013-1-21,34.2,30.1,25.0,21.4,8.3,-2.2,77,42,23,30.13,29.84,0,0,0,0.00
2013-1-22,24.8,19.5,13.5,17.1,-8.7,-19.0,72,29,18,30.26,29.86,16,2,24,0.00
2013-1-23,22.3,14.5,9.1,-5.6,-12.2,-19.2,48,29,18,30.30,30.20,13,1,17,0.00
2013-1-24,25.2,17.1,7.9,-1.6,-8.9,-15.6,57,33,18,30.44,30.15,0,0,0,0.00
2013-1-25,24.8,17.7,12.4,10.9,-3.8,-16.9,69,41,23,30.46,30.08,0,0,0,0.00
2013-1-26,28.4,19.9,10.8,7.3,0.8,-7.0,70,46,22,30.40,30.07,0,0,0,0.00
2013-1-27,34.9,24.2,12.2,9.3,2.7,-3.5,56,40,23,30.56,30.39,0,0,0,0.00
2013-1-28,36.0,29.7,19.8,31.9,21.5,7.2,86,72,55,30.52,30.03,0,0,0,0.07
2013-1-29,54.9,42.6,34.2,43.0,37.3,30.1,91,82,58,30.16,30.02,0,0,0,0.00
2013-1-30,62.1,51.8,43.2,55.9,48.0,41.6,95,87,73,30.07,29.41,0,0,1,0.05
2013-1-31,61.2,46.3,30.0,57.3,27.0,-0.4,91,51,21,29.85,29.14,28,6,40,0.87